Showing default

YUNYAO-1 44, 63345

Orbit data source: Space-Track

YUNYAO-1 44, 63345 is a payload satellite owned by Yunyao yuhang (CN) in SSO that was launched on Fri, 21 Mar 2025 UTC via a GUSHENXING 1 launch vehicle from the Jiuquan Satellite Launch Center, China (JSC). Payload-class satellites include a variety of spacecraft equipped with specific instruments for various scientific and technological missions. These include communications satellites like Starlink; space stations such as the ISS; scientific satellites like the Hubble; Earth observation satellites from companies like Planet Labs, Umbra, and HawkEye 360; GPS; miniature CubeSats for education and research; and military/defense satellites.

Loading next visibility...
Identifier
63345, 2025-059B
Orbit
SSO
Last TLE update
6 hours ago
Origin
Manufacturer
Changguang WJ
Mission
Operational spacecraft
Bus & Motor
YY-1, Unknown motor
Mass
~50 kg wet, ~50 kg dry
Launch date (UTC)
2025-03-21 (3 months ago)
Launch vehicle
GUSHENXING 1
Launch site
Jiuquan Satellite Launch Center, China (JSC)
Object type
Payload
Rocket body
Debris
Shape & HBR
Unknown
Radar Cross Section
Medium (>0.1 m² and <1 m²)

Expand to show TLE details & history

TLE from 6 hours ago
0 YUNYAO-1 44
1 63345U 25059B   25182.13581537  .00002003  00000-0  13465-3 0  9990
2 63345  97.5993   1.3846 0016552 280.2358  79.7003 15.07822715 15341
Epoch: 2025-07-01T03:15Z
TLE epoch observation values (Epoch: 2025-07-01T03:15:34.447Z)
Latitude
-0.00009°
Longitude
33.05547°
Altitude
543.892 km
Speed
7.591 km/s
True Right ascension
00h 05m 32s
True Declination
0° 00' 00"
Sunlit
Object was in daylight at epoch
Visualization orbit readout
Latitude
5.7594°
Longitude
-145.9492°
Altitude
548.37 km
Speed
7.587 km/s
Apparent Right ascension
10h 38m 32s
Apparent Declination
-17° 53' 51"
Sunlit
Object is in daylight
Visualization observer readout
Local Sidereal Time
20:26:43
Azimuth
298.124° NW
Elevation
-54.06°
Doppler factor
1
Orbital elements
Apogee altitude
551.296 km
Perigee altitude
528.394 km
Semi-major axis
6,917.982 km
Eccentricity
0.00166
Inclination
97.5993°
RAAN
1.3846°
Arg. of periapsis
280.2358°
True anomaly
Unknown
Mean anomaly
79.7003°
Eccentric anomaly
Unknown
Mean motion
3.77202 °/min
Orbital period
95.44 mins
BSTAR
0.00013465
Loading maneuver chart data...
Loading SW <> Apogee altitude chart data...
Loading historical data...
Loading historical data...
Loading historical data...
Loading historical data...
Loading historical data...
Loading historical data...
Loading historical data...
Other satellites on launch #59 in the year 2025 (2025-03-21 UTC)

YUNYAO-1 44 Visibility forecast

Observer location: undefined°, undefined°

Span
Click to sort rows by Start time (UTC) header in descending order
Start Az.
Max El. time (UTC)
Max El. Az.
Max El.
End time (UTC)
End Az.
6 mins2025-07-01 11:21:32.502Z129.616° SE2025-07-01 11:24:32.502Z72.763° E26.578°2025-07-01 11:27:32.502Z13.548° NNE
4 mins2025-07-01 12:57:32.502Z235.376° WSW2025-07-01 12:59:32.502Z272.841° WNW17.222°2025-07-01 13:01:32.502Z306.049° NW
6 mins2025-07-02 00:32:32.502Z28.661° NE2025-07-02 00:35:32.502Z120.511° SE37.274°2025-07-02 00:38:32.502Z174.979° S
|